START_TIME,STEP,MOV.,M15,t_acc.,M20,t_acc.
1979-08-05 15:00:42.490 ,1,0,0.,24.0,0.,24.0
1979-08-05 15:01:06.490 ,2,1,0.,24.0,0.,24.0
1979-08-05 15:01:30.490 ,2,0,0.,24.0,0.,24.0
1979-08-05 15:01:54.490 ,3,1,0.,24.0,0.,24.0
1979-08-05 15:02:18.490 ,3,0,0.,24.0,0.,24.0
1979-08-05 15:02:42.490 ,4,1,0.,24.0,0.,24.0
1979-08-05 15:03:06.490 ,4,0,0.,24.0,0.,24.0
1979-08-05 15:03:30.490 ,5,1,0.,24.0,0.,24.0
1979-08-05 15:03:54.490 ,5,0,0.,24.0,0.,24.0
1979-08-05 15:04:18.490 ,6,1,0.,24.0,0.,24.0
1979-08-05 15:04:42.490 ,6,0,0.,24.0,0.,24.0
1979-08-05 15:05:06.480 ,7,1,0.,24.0,0.,24.0
1979-08-05 15:05:30.490 ,7,0,0.,24.0,0.,24.0
1979-08-05 15:05:54.490 ,7,1,0.,24.0,0.,24.0
1979-08-05 15:06:18.480 ,7,0,0.,24.0,0.,24.0
1979-08-05 15:06:42.490 ,6,1,0.,24.0,0.,24.0
1979-08-05 15:07:06.480 ,6,0,0.,24.0,0.,24.0
1979-08-05 15:07:30.490 ,5,1,0.,24.0,0.,24.0
1979-08-05 15:07:54.490 ,5,0,0.,24.0,0.,24.0
1979-08-05 15:08:18.480 ,4,1,0.,24.0,0.,24.0
1979-08-05 15:08:42.480 ,0,0,0.,24.0,0.,24.0
1979-08-05 15:09:06.490 ,3,1,0.,24.0,0.,24.0
1979-08-05 15:09:30.490 ,3,0,0.,24.0,0.,24.0
1979-08-05 15:09:54.490 ,2,1,0.,24.0,0.,24.0
1979-08-05 15:10:18.490 ,2,0,0.,24.0,0.,24.0
1979-08-05 15:10:42.490 ,1,1,0.,24.0,0.,24.0
1979-08-05 15:11:06.490 ,1,0,0.,24.0,0.,24.0
1979-08-05 15:11:30.490 ,0,1,0.,24.0,0.,24.0
1979-08-05 15:11:54.490 ,0,0,0.,24.0,0.,24.0
1979-08-05 15:12:18.490 ,0,1,0.,24.0,0.,24.0
1979-08-05 15:12:42.490 ,0,0,0.,24.0,0.,24.0
1979-08-05 15:13:06.490 ,1,1,0.,24.0,0.,24.0
1979-08-05 15:13:30.490 ,1,0,0.,24.0,0.,24.0
1979-08-05 15:13:54.490 ,2,1,0.,24.0,0.,24.0
1979-08-05 15:14:18.490 ,2,0,0.,24.0,0.,24.0
1979-08-05 15:14:42.490 ,3,1,0.,24.0,0.,24.0
1979-08-05 15:15:06.490 ,3,0,0.,24.0,0.,24.0
1979-08-05 15:15:30.490 ,4,1,0.,24.0,0.,24.0
1979-08-05 15:15:54.490 ,4,0,0.,24.0,0.,24.0
1979-08-05 15:16:18.490 ,5,1,0.,24.0,0.,24.0
1979-08-05 15:16:42.490 ,5,0,0.,24.0,0.,24.0
1979-08-05 15:17:06.480 ,6,1,0.,24.0,0.,24.0
1979-08-05 15:17:30.480 ,6,0,0.,24.0,0.,24.0
1979-08-05 15:17:54.480 ,7,1,0.,24.0,0.,24.0
1979-08-05 15:18:18.480 ,7,0,0.,24.0,0.,24.0
1979-08-05 15:18:42.480 ,7,1,0.,24.0,0.,24.0
1979-08-05 15:19:06.480 ,7,0,0.,24.0,0.,24.0
1979-08-05 15:19:30.480 ,6,1,0.,24.0,0.,24.0
1979-08-05 15:19:54.480 ,6,0,0.,24.0,0.,24.0
1979-08-05 15:20:18.480 ,5,1,0.,24.0,0.,24.0
1979-08-05 15:20:42.480 ,5,0,0.,24.0,0.,24.0
1979-08-05 15:21:06.480 ,4,1,0.,24.0,0.,24.0
1979-08-05 15:21:30.480 ,4,0,0.,24.0,0.,24.0
1979-08-05 15:21:54.480 ,3,1,0.,24.0,0.,24.0
1979-08-05 15:22:18.480 ,3,0,0.,24.0,0.,24.0
1979-08-05 15:22:42.480 ,2,1,0.,24.0,0.,24.0
1979-08-05 15:23:06.480 ,2,0,0.,24.0,0.,24.0
1979-08-05 15:23:30.480 ,1,1,0.,24.0,0.,24.0
1979-08-05 15:23:54.480 ,1,0,0.,24.0,0.,24.0
1979-08-05 15:24:18.480 ,0,1,0.,24.0,0.,24.0
1979-08-05 15:24:42.480 ,0,0,0.,24.0,0.,24.0
1979-08-05 15:25:06.480 ,0,1,0.,24.0,0.,24.0
1979-08-05 15:25:30.480 ,0,0,0.,24.0,0.,24.0
1979-08-05 15:25:54.480 ,1,1,0.,24.0,0.,24.0
1979-08-05 15:26:18.480 ,1,0,0.,24.0,0.,24.0
1979-08-05 15:26:42.480 ,2,1,0.,24.0,0.,24.0
1979-08-05 15:27:06.480 ,2,0,0.,24.0,0.,24.0
1979-08-05 15:27:30.480 ,3,1,0.,24.0,0.,24.0
1979-08-05 15:27:54.480 ,3,0,0.,24.0,0.,24.0
1979-08-05 15:28:18.480 ,4,1,0.,24.0,0.,24.0
1979-08-05 15:28:42.480 ,4,0,0.,24.0,0.,24.0
1979-08-05 15:29:06.480 ,5,1,0.,24.0,0.,24.0
1979-08-05 15:29:30.480 ,5,0,0.,24.0,0.,24.0
1979-08-05 15:29:54.480 ,6,1,0.,24.0,0.,24.0
1979-08-05 15:30:18.480 ,6,0,0.,24.0,0.,24.0
1979-08-05 15:30:42.480 ,7,0,0.,24.0,0.,24.0
1979-08-05 15:31:06.480 ,7,0,0.,24.0,0.,24.0
1979-08-05 15:31:30.480 ,3,1,0.,24.0,0.,24.0
1979-08-05 15:31:54.480 ,0,1,0.,24.0,0.,24.0
1979-08-05 15:32:18.480 ,4,1,0.,24.0,0.,24.0
1979-08-05 15:32:42.480 ,7,1,0.,24.0,0.,24.0
1979-08-05 15:33:06.480 ,3,1,0.,24.0,0.,24.0
1979-08-05 15:33:30.480 ,0,1,0.,24.0,0.,24.0
1979-08-05 15:33:54.480 ,4,1,0.,24.0,0.,24.0
1979-08-05 15:34:18.480 ,7,1,0.,24.0,0.,24.0
1979-08-05 15:34:42.480 ,3,1,0.,24.0,0.,24.0
1979-08-05 15:35:06.480 ,0,1,0.,24.0,0.,24.0
1979-08-05 15:35:30.480 ,4,1,0.,24.0,0.,24.0
1979-08-05 15:35:54.480 ,7,1,0.,24.0,0.,24.0
1979-08-05 15:36:18.480 ,3,1,0.,24.0,0.,24.0
1979-08-05 15:36:42.480 ,0,1,0.,24.0,0.,24.0
1979-08-05 15:37:06.480 ,4,1,0.,24.0,0.,24.0
1979-08-05 15:37:30.480 ,7,1,0.,24.0,0.,24.0
1979-08-05 15:37:54.480 ,3,1,0.,24.0,0.,24.0
1979-08-05 15:38:18.480 ,0,1,0.,24.0,0.,24.0
1979-08-05 15:38:42.480 ,4,1,0.,24.0,0.,24.0
1979-08-05 15:39:06.480 ,7,1,1.,24.0,0.,24.0
1979-08-05 15:39:30.480 ,3,1,0.,24.0,0.,24.0
1979-08-05 15:39:54.480 ,0,1,0.,24.0,0.,24.0
1979-08-05 15:40:18.480 ,4,1,0.,24.0,0.,24.0
1979-08-05 15:40:42.480 ,0,0,,0,,0
1979-08-05 15:41:13.080 ,0,0,0.,24.0,0.,24.0
1979-08-05 15:41:30.480 ,0,1,0.,24.0,0.,24.0
1979-08-05 15:41:54.480 ,0,0,0.,24.0,0.,24.0
1979-08-05 15:42:18.480 ,0,0,0.,24.0,0.,24.0
1979-08-05 15:42:42.480 ,5,1,0.,24.0,0.,24.0
1979-08-05 15:43:06.480 ,5,0,0.,24.0,0.,24.0
1979-08-05 15:43:30.480 ,4,1,0.,24.0,0.,24.0
1979-08-05 15:43:54.480 ,4,0,0.,24.0,0.,24.0
1979-08-05 15:44:18.480 ,3,1,0.,24.0,0.,24.0
1979-08-05 15:44:42.480 ,3,0,0.,24.0,0.,24.0
1979-08-05 15:45:06.480 ,2,1,0.,24.0,0.,24.0
1979-08-05 15:45:30.480 ,2,0,0.,24.0,0.,24.0
1979-08-05 15:45:54.480 ,1,1,0.,24.0,0.,24.0
1979-08-05 15:46:18.480 ,1,0,0.,24.0,0.,24.0
1979-08-05 15:46:42.480 ,0,1,0.,24.0,0.,24.0
1979-08-05 15:47:06.480 ,0,0,0.,24.0,0.,24.0
1979-08-05 15:47:30.480 ,0,1,0.,24.0,0.,24.0
1979-08-05 15:47:54.480 ,0,0,0.,24.0,0.,24.0
1979-08-05 15:48:18.480 ,1,1,0.,24.0,0.,24.0
1979-08-05 15:48:42.480 ,1,0,0.,24.0,0.,24.0
1979-08-05 15:49:06.480 ,2,1,0.,24.0,0.,24.0
1979-08-05 15:49:30.480 ,2,0,0.,24.0,0.,24.0
1979-08-05 15:49:54.480 ,3,1,0.,24.0,0.,24.0
1979-08-05 15:50:18.480 ,3,0,0.,24.0,0.,24.0
1979-08-05 15:50:42.480 ,0,0,,0,,0
1979-08-05 15:51:06.480 ,0,0,0.,24.0,0.,24.0
1979-08-05 15:51:30.480 ,5,1,0.,24.0,0.,24.0
1979-08-05 15:51:54.480 ,5,0,0.,24.0,0.,24.0
1979-08-05 15:52:18.480 ,6,1,0.,24.0,0.,24.0
1979-08-05 15:52:42.480 ,6,0,0.,24.0,0.,24.0
1979-08-05 15:53:06.480 ,7,1,0.,24.0,0.,24.0
1979-08-05 15:53:30.480 ,7,0,0.,24.0,0.,24.0
1979-08-05 15:53:54.480 ,7,1,0.,24.0,0.,24.0
1979-08-05 15:54:18.480 ,7,0,0.,24.0,0.,24.0
1979-08-05 15:54:42.480 ,6,1,0.,24.0,0.,24.0
1979-08-05 15:55:06.480 ,6,0,0.,24.0,0.,24.0
1979-08-05 15:55:30.480 ,5,1,0.,24.0,1.,24.0
1979-08-05 15:55:54.480 ,5,0,0.,24.0,0.,24.0
1979-08-05 15:56:18.480 ,4,1,0.,24.0,0.,24.0
1979-08-05 15:56:42.480 ,4,0,0.,24.0,0.,24.0
1979-08-05 15:57:06.480 ,3,1,0.,24.0,0.,24.0
1979-08-05 15:57:30.480 ,3,0,0.,24.0,0.,24.0
1979-08-05 15:57:54.480 ,2,1,0.,24.0,0.,24.0
1979-08-05 15:58:18.480 ,2,0,0.,24.0,0.,24.0
1979-08-05 15:58:42.480 ,1,1,0.,24.0,0.,24.0
1979-08-05 15:59:06.480 ,1,0,0.,24.0,0.,24.0
1979-08-05 15:59:30.480 ,0,1,0.,24.0,0.,24.0
1979-08-05 15:59:54.480 ,0,0,0.,24.0,0.,24.0
1979-08-05 16:00:18.480 ,0,1,0.,24.0,0.,24.0
1979-08-05 16:00:42.480 ,0,0,0.,24.0,0.,24.0
1979-08-05 16:01:06.480 ,1,1,0.,24.0,0.,24.0
1979-08-05 16:01:30.480 ,1,0,0.,24.0,0.,24.0
1979-08-05 16:01:54.480 ,2,1,0.,24.0,0.,24.0
1979-08-05 16:02:18.480 ,2,0,0.,24.0,0.,24.0
1979-08-05 16:02:42.480 ,3,1,0.,24.0,0.,24.0
1979-08-05 16:03:06.480 ,3,0,0.,24.0,0.,24.0
1979-08-05 16:03:30.480 ,4,1,0.,24.0,0.,24.0
1979-08-05 16:03:54.480 ,4,0,0.,24.0,0.,24.0
1979-08-05 16:04:18.480 ,5,1,0.,24.0,0.,24.0
1979-08-05 16:04:42.480 ,5,0,0.,24.0,0.,24.0
1979-08-05 16:05:06.480 ,6,1,0.,24.0,0.,24.0
1979-08-05 16:05:30.480 ,6,0,0.,24.0,0.,24.0
1979-08-05 16:05:54.480 ,7,1,0.,24.0,0.,24.0
1979-08-05 16:06:18.480 ,7,0,0.,24.0,0.,24.0
1979-08-05 16:06:42.480 ,7,1,0.,24.0,0.,24.0
1979-08-05 16:07:06.480 ,7,0,0.,24.0,0.,24.0
1979-08-05 16:07:30.480 ,6,1,0.,24.0,0.,24.0
1979-08-05 16:07:54.480 ,6,0,0.,24.0,0.,24.0
1979-08-05 16:08:18.480 ,5,1,0.,24.0,0.,24.0
1979-08-05 16:08:42.480 ,5,0,0.,24.0,0.,24.0
1979-08-05 16:09:06.480 ,4,1,0.,24.0,0.,24.0
1979-08-05 16:09:30.480 ,4,0,0.,24.0,0.,24.0
1979-08-05 16:09:54.480 ,3,1,0.,24.0,0.,24.0
1979-08-05 16:10:18.480 ,3,0,0.,24.0,0.,24.0
1979-08-05 16:10:42.480 ,2,1,0.,24.0,0.,24.0
1979-08-05 16:11:06.480 ,2,0,0.,24.0,0.,24.0
1979-08-05 16:11:30.480 ,1,1,0.,24.0,0.,24.0
1979-08-05 16:11:54.480 ,1,0,0.,24.0,0.,24.0
1979-08-05 16:12:18.480 ,0,1,0.,24.0,0.,24.0
1979-08-05 16:12:42.480 ,0,0,0.,24.0,0.,24.0
1979-08-05 16:13:06.480 ,0,1,0.,24.0,0.,24.0
1979-08-05 16:13:30.480 ,0,0,0.,24.0,0.,24.0
1979-08-05 16:13:54.480 ,1,1,0.,24.0,0.,24.0
1979-08-05 16:14:18.480 ,1,0,1.,24.0,0.,24.0
1979-08-05 16:14:42.480 ,2,1,0.,24.0,0.,24.0
1979-08-05 16:15:06.480 ,2,0,0.,24.0,0.,24.0
1979-08-05 16:15:30.480 ,3,1,0.,24.0,0.,24.0
1979-08-05 16:15:54.480 ,3,0,0.,24.0,0.,24.0
1979-08-05 16:16:18.480 ,4,1,0.,24.0,0.,24.0
1979-08-05 16:16:42.480 ,4,0,0.,24.0,0.,24.0
1979-08-05 16:17:06.480 ,5,1,0.,24.0,0.,24.0
1979-08-05 16:17:30.480 ,5,0,0.,24.0,0.,24.0
1979-08-05 16:17:54.480 ,6,1,0.,24.0,0.,24.0
1979-08-05 16:18:18.480 ,6,0,0.,24.0,0.,24.0
1979-08-05 16:18:42.480 ,7,0,0.,24.0,0.,24.0
1979-08-05 16:19:06.480 ,7,0,0.,24.0,0.,24.0
1979-08-05 16:19:30.480 ,3,1,0.,24.0,0.,24.0
1979-08-05 16:19:54.480 ,0,1,0.,24.0,0.,24.0
1979-08-05 16:20:18.480 ,4,1,0.,24.0,0.,24.0
1979-08-05 16:20:42.480 ,7,1,0.,24.0,0.,24.0
1979-08-05 16:21:06.480 ,3,1,0.,24.0,0.,24.0
1979-08-05 16:21:30.480 ,0,1,0.,24.0,0.,24.0
1979-08-05 16:21:54.480 ,4,1,0.,24.0,0.,24.0
1979-08-05 16:22:18.480 ,7,1,0.,24.0,0.,24.0
1979-08-05 16:22:42.480 ,3,1,0.,24.0,0.,24.0
1979-08-05 16:23:06.480 ,0,1,0.,24.0,0.,24.0
1979-08-05 16:23:30.480 ,4,1,0.,24.0,0.,24.0
1979-08-05 16:23:54.480 ,7,1,0.,24.0,0.,24.0
1979-08-05 16:24:18.480 ,3,1,0.,24.0,0.,24.0
1979-08-05 16:24:42.480 ,0,1,0.,24.0,0.,24.0
1979-08-05 16:25:06.480 ,4,1,0.,24.0,0.,24.0
1979-08-05 16:25:30.480 ,7,1,0.,24.0,0.,24.0
1979-08-05 16:25:54.480 ,3,1,0.,24.0,0.,24.0
1979-08-05 16:26:18.480 ,0,1,0.,24.0,0.,24.0
1979-08-05 16:26:42.480 ,4,1,0.,24.0,0.,24.0
1979-08-05 16:27:06.480 ,7,1,0.,24.0,0.,24.0
1979-08-05 16:27:30.480 ,3,1,0.,24.0,0.,24.0
1979-08-05 16:27:54.480 ,0,1,0.,24.0,0.,24.0
1979-08-05 16:28:18.480 ,4,1,0.,24.0,0.,24.0
1979-08-05 16:28:42.480 ,7,1,0.,24.0,0.,24.0
1979-08-05 16:29:06.480 ,3,1,0.,24.0,0.,24.0
1979-08-05 16:29:30.480 ,0,1,0.,24.0,0.,24.0
1979-08-05 16:29:54.480 ,0,0,0.,24.0,0.,24.0
1979-08-05 16:30:18.480 ,0,0,0.,24.0,0.,24.0
1979-08-05 16:30:42.480 ,5,1,0.,24.0,0.,24.0
1979-08-05 16:31:06.480 ,5,0,0.,24.0,0.,24.0
1979-08-05 16:31:30.480 ,4,1,0.,24.0,0.,24.0
1979-08-05 16:31:54.480 ,4,0,0.,24.0,0.,24.0
1979-08-05 16:32:18.480 ,3,1,0.,24.0,0.,24.0
1979-08-05 16:32:42.480 ,3,0,0.,24.0,0.,24.0
1979-08-05 16:33:06.480 ,2,1,0.,24.0,0.,24.0
1979-08-05 16:33:30.480 ,2,0,0.,24.0,0.,24.0
1979-08-05 16:33:54.480 ,1,1,0.,24.0,0.,24.0
1979-08-05 16:34:18.480 ,1,0,0.,24.0,0.,24.0
1979-08-05 16:34:42.480 ,0,1,0.,24.0,0.,24.0
1979-08-05 16:35:06.480 ,0,0,0.,24.0,0.,24.0
1979-08-05 16:35:30.480 ,0,1,0.,24.0,0.,24.0
1979-08-05 16:35:54.480 ,0,0,0.,24.0,0.,24.0
1979-08-05 16:36:18.480 ,1,1,0.,24.0,0.,24.0
1979-08-05 16:36:42.480 ,1,0,0.,24.0,0.,24.0
1979-08-05 16:37:06.480 ,2,1,0.,24.0,0.,24.0
1979-08-05 16:37:30.480 ,2,0,0.,24.0,0.,24.0
1979-08-05 16:37:54.480 ,3,1,0.,24.0,0.,24.0
1979-08-05 16:38:18.480 ,3,0,0.,24.0,0.,24.0
1979-08-05 16:38:42.480 ,4,1,0.,24.0,1.,24.0
1979-08-05 16:39:06.480 ,4,0,0.,24.0,0.,24.0
1979-08-05 16:39:30.480 ,5,1,0.,24.0,0.,24.0
1979-08-05 16:39:54.480 ,5,0,0.,24.0,0.,24.0
1979-08-05 16:40:18.480 ,6,1,0.,24.0,0.,24.0
1979-08-05 16:40:42.480 ,6,0,0.,24.0,0.,24.0
1979-08-05 16:41:06.480 ,7,1,0.,24.0,0.,24.0
1979-08-05 16:41:30.480 ,7,0,0.,24.0,0.,24.0
1979-08-05 16:41:54.480 ,7,1,0.,24.0,0.,24.0
1979-08-05 16:42:18.480 ,7,0,0.,24.0,0.,24.0
1979-08-05 16:42:42.480 ,6,1,0.,24.0,0.,24.0
1979-08-05 16:43:06.480 ,6,0,0.,24.0,0.,24.0
1979-08-05 16:43:30.480 ,5,1,0.,24.0,0.,24.0
1979-08-05 16:43:54.480 ,5,0,0.,24.0,0.,24.0
1979-08-05 16:44:18.480 ,4,1,0.,24.0,0.,24.0
1979-08-05 16:44:42.480 ,4,0,0.,24.0,0.,24.0
1979-08-05 16:45:06.480 ,3,1,0.,24.0,0.,24.0
1979-08-05 16:45:30.480 ,3,0,0.,24.0,0.,24.0
1979-08-05 16:45:54.480 ,2,1,0.,24.0,0.,24.0
1979-08-05 16:46:18.480 ,2,0,0.,24.0,0.,24.0
1979-08-05 16:46:42.480 ,1,1,0.,24.0,0.,24.0
1979-08-05 16:47:06.480 ,1,0,0.,24.0,0.,24.0
1979-08-05 16:47:30.480 ,0,1,0.,24.0,0.,24.0
1979-08-05 16:47:54.480 ,0,0,0.,24.0,0.,24.0
1979-08-05 16:48:18.480 ,0,1,0.,24.0,0.,24.0
1979-08-05 16:48:42.480 ,0,0,0.,24.0,0.,24.0
1979-08-05 16:49:06.480 ,1,1,0.,24.0,0.,24.0
1979-08-05 16:49:30.480 ,1,0,0.,24.0,0.,24.0
1979-08-05 16:49:54.480 ,2,1,0.,24.0,0.,24.0
1979-08-05 16:50:18.480 ,2,0,0.,24.0,0.,24.0
1979-08-05 16:50:42.480 ,3,1,0.,24.0,0.,24.0
1979-08-05 16:51:06.480 ,3,0,0.,24.0,0.,24.0
1979-08-05 16:51:30.480 ,4,1,0.,24.0,0.,24.0
1979-08-05 16:51:54.480 ,4,0,0.,24.0,0.,24.0
1979-08-05 16:52:18.480 ,5,1,0.,24.0,0.,24.0
1979-08-05 16:52:42.480 ,5,0,0.,24.0,0.,24.0
1979-08-05 16:53:06.480 ,6,1,0.,24.0,0.,24.0
1979-08-05 16:53:30.480 ,6,0,0.,24.0,0.,24.0
1979-08-05 16:53:54.480 ,7,1,0.,24.0,0.,24.0
1979-08-05 16:54:18.480 ,7,0,0.,24.0,0.,24.0
1979-08-05 16:54:42.480 ,7,1,0.,24.0,0.,24.0
1979-08-05 16:55:06.480 ,7,0,0.,24.0,0.,24.0
1979-08-05 16:55:30.480 ,6,1,0.,24.0,0.,24.0
1979-08-05 16:55:54.480 ,6,0,0.,24.0,0.,24.0
1979-08-05 16:56:18.480 ,5,1,0.,24.0,0.,24.0
1979-08-05 16:56:42.480 ,5,0,0.,24.0,0.,24.0
1979-08-05 16:57:06.480 ,4,1,0.,24.0,0.,24.0
1979-08-05 16:57:30.480 ,4,0,0.,24.0,0.,24.0
1979-08-05 16:57:54.480 ,3,1,0.,24.0,0.,24.0
1979-08-05 16:58:18.480 ,3,0,0.,24.0,0.,24.0
1979-08-05 16:58:42.480 ,2,1,0.,24.0,0.,24.0
1979-08-05 16:59:06.480 ,2,0,0.,24.0,0.,24.0
1979-08-05 16:59:30.480 ,1,1,0.,24.0,0.,24.0
1979-08-05 16:59:54.480 ,1,0,0.,24.0,0.,24.0
1979-08-05 17:00:18.480 ,0,1,0.,24.0,0.,24.0
1979-08-05 17:00:42.480 ,0,0,0.,24.0,0.,24.0
1979-08-05 17:01:06.480 ,0,1,0.,24.0,0.,24.0
1979-08-05 17:01:30.480 ,0,0,0.,24.0,0.,24.0
1979-08-05 17:01:54.480 ,1,1,0.,24.0,0.,24.0
1979-08-05 17:02:18.480 ,1,0,0.,24.0,0.,24.0
1979-08-05 17:02:42.480 ,2,1,0.,24.0,0.,24.0
1979-08-05 17:03:06.480 ,2,0,0.,24.0,0.,24.0
1979-08-05 17:03:30.480 ,3,1,0.,24.0,0.,24.0
1979-08-05 17:03:54.480 ,3,0,0.,24.0,0.,24.0
1979-08-05 17:04:18.480 ,4,1,0.,24.0,0.,24.0
1979-08-05 17:04:42.480 ,4,0,0.,24.0,0.,24.0
1979-08-05 17:05:06.480 ,5,1,0.,24.0,0.,24.0
1979-08-05 17:05:30.480 ,5,0,1.,24.0,0.,24.0
1979-08-05 17:05:54.480 ,6,1,0.,24.0,0.,24.0
1979-08-05 17:06:18.480 ,6,0,0.,24.0,0.,24.0
1979-08-05 17:06:42.480 ,7,0,0.,24.0,0.,24.0
1979-08-05 17:07:06.480 ,7,0,0.,24.0,0.,24.0
1979-08-05 17:07:30.480 ,3,1,0.,24.0,0.,24.0
1979-08-05 17:07:54.480 ,0,1,1.,24.0,0.,24.0
1979-08-05 17:08:18.480 ,4,1,0.,24.0,0.,24.0
1979-08-05 17:08:42.480 ,7,1,0.,24.0,0.,24.0
1979-08-05 17:09:06.480 ,3,1,0.,24.0,0.,24.0
1979-08-05 17:09:30.480 ,0,1,0.,24.0,0.,24.0
1979-08-05 17:09:54.480 ,4,1,0.,24.0,0.,24.0
1979-08-05 17:10:18.480 ,7,1,0.,24.0,0.,24.0
1979-08-05 17:10:42.480 ,3,1,0.,24.0,0.,24.0
1979-08-05 17:11:06.480 ,0,1,0.,24.0,0.,24.0
1979-08-05 17:11:30.480 ,4,1,0.,24.0,0.,24.0
1979-08-05 17:11:54.480 ,7,1,0.,24.0,0.,24.0
1979-08-05 17:12:18.480 ,3,1,0.,24.0,0.,24.0
1979-08-05 17:12:42.480 ,0,1,0.,24.0,0.,24.0
1979-08-05 17:13:06.480 ,4,1,0.,24.0,0.,24.0
1979-08-05 17:13:30.480 ,7,1,0.,24.0,0.,24.0
1979-08-05 17:13:54.480 ,3,1,0.,24.0,0.,24.0
1979-08-05 17:14:18.480 ,0,1,0.,24.0,0.,24.0
1979-08-05 17:14:42.480 ,4,1,0.,24.0,0.,24.0
1979-08-05 17:15:06.480 ,7,1,0.,24.0,0.,24.0
1979-08-05 17:15:30.480 ,3,1,0.,24.0,0.,24.0
1979-08-05 17:15:54.480 ,0,1,0.,24.0,0.,24.0
1979-08-05 17:16:18.480 ,4,1,0.,24.0,0.,24.0
1979-08-05 17:16:42.480 ,7,1,0.,24.0,0.,24.0
1979-08-05 17:17:06.480 ,3,1,0.,24.0,0.,24.0
1979-08-05 17:17:30.480 ,0,1,0.,24.0,0.,24.0
1979-08-05 17:17:54.480 ,0,0,0.,24.0,0.,24.0
1979-08-05 17:18:18.480 ,0,0,0.,24.0,0.,24.0
1979-08-05 17:18:42.480 ,5,1,0.,24.0,0.,24.0
1979-08-05 17:19:06.480 ,5,0,0.,24.0,0.,24.0
1979-08-05 17:19:30.480 ,4,1,0.,24.0,0.,24.0
1979-08-05 17:19:54.480 ,4,0,0.,24.0,0.,24.0
1979-08-05 17:20:18.480 ,3,1,0.,24.0,0.,24.0
1979-08-05 17:20:42.480 ,3,0,0.,24.0,0.,24.0
1979-08-05 17:21:06.480 ,2,1,0.,24.0,0.,24.0
1979-08-05 17:21:30.480 ,2,0,0.,24.0,0.,24.0
1979-08-05 17:21:54.480 ,1,1,0.,24.0,0.,24.0
1979-08-05 17:22:18.480 ,1,0,0.,24.0,0.,24.0
1979-08-05 17:22:42.480 ,0,1,0.,24.0,0.,24.0
1979-08-05 17:23:06.480 ,0,0,0.,24.0,0.,24.0
1979-08-05 17:23:30.480 ,0,1,0.,24.0,0.,24.0
1979-08-05 17:23:54.480 ,0,0,0.,24.0,0.,24.0
1979-08-05 17:24:18.480 ,1,1,0.,24.0,0.,24.0
1979-08-05 17:24:42.480 ,1,0,0.,24.0,0.,24.0
1979-08-05 17:25:06.480 ,2,1,0.,24.0,0.,24.0
1979-08-05 17:25:30.480 ,2,0,0.,24.0,0.,24.0
1979-08-05 17:25:54.480 ,0,0,,0,,0
1979-08-05 17:26:18.480 ,0,0,0.,24.0,0.,24.0
1979-08-05 17:26:42.480 ,4,1,0.,24.0,0.,24.0
1979-08-05 17:27:06.480 ,4,0,0.,24.0,0.,24.0
1979-08-05 17:27:30.480 ,5,1,0.,24.0,0.,24.0
1979-08-05 17:27:54.480 ,5,0,0.,24.0,0.,24.0
1979-08-05 17:28:18.480 ,6,1,0.,24.0,0.,24.0
1979-08-05 17:28:42.480 ,6,0,0.,24.0,0.,24.0
1979-08-05 17:29:06.480 ,7,1,0.,24.0,0.,24.0
1979-08-05 17:29:30.480 ,7,0,0.,24.0,0.,24.0
1979-08-05 17:29:54.480 ,7,1,0.,24.0,0.,24.0
1979-08-05 17:30:18.480 ,7,0,0.,24.0,0.,24.0
1979-08-05 17:30:42.480 ,6,1,0.,24.0,0.,24.0
1979-08-05 17:31:06.480 ,6,0,0.,24.0,0.,24.0
1979-08-05 17:31:30.480 ,5,1,0.,24.0,0.,24.0
1979-08-05 17:31:54.480 ,5,0,0.,24.0,0.,24.0
1979-08-05 17:32:18.480 ,4,1,0.,24.0,0.,24.0
1979-08-05 17:32:42.480 ,4,0,0.,24.0,0.,24.0
1979-08-05 17:33:06.480 ,3,1,0.,24.0,0.,24.0
1979-08-05 17:33:30.480 ,3,0,0.,24.0,0.,24.0
1979-08-05 17:33:54.480 ,2,1,0.,24.0,0.,24.0
1979-08-05 17:34:18.480 ,2,0,0.,24.0,0.,24.0
1979-08-05 17:34:42.480 ,1,1,0.,24.0,0.,24.0
1979-08-05 17:35:06.480 ,1,0,0.,24.0,0.,24.0
1979-08-05 17:35:30.480 ,0,1,0.,24.0,0.,24.0
1979-08-05 17:35:54.480 ,0,0,0.,24.0,0.,24.0
1979-08-05 17:36:18.480 ,0,1,0.,24.0,0.,24.0
1979-08-05 17:36:42.480 ,0,0,0.,24.0,0.,24.0
1979-08-05 17:37:06.480 ,1,1,0.,24.0,0.,24.0
1979-08-05 17:37:30.480 ,1,0,0.,24.0,0.,24.0
1979-08-05 17:37:54.480 ,2,1,0.,24.0,0.,24.0
1979-08-05 17:38:18.480 ,2,0,0.,24.0,0.,24.0
1979-08-05 17:38:42.480 ,3,1,0.,24.0,0.,24.0
1979-08-05 17:39:06.480 ,3,0,0.,24.0,0.,24.0
1979-08-05 17:39:30.480 ,4,1,0.,24.0,0.,24.0
1979-08-05 17:39:54.480 ,4,0,0.,24.0,0.,24.0
1979-08-05 17:40:18.480 ,5,1,0.,24.0,0.,24.0
1979-08-05 17:40:42.480 ,5,0,0.,24.0,0.,24.0
1979-08-05 17:41:06.480 ,6,1,0.,24.0,0.,24.0
1979-08-05 17:41:30.480 ,6,0,0.,24.0,0.,24.0
1979-08-05 17:41:54.480 ,7,1,0.,24.0,0.,24.0
1979-08-05 17:42:18.480 ,7,0,0.,24.0,0.,24.0
1979-08-05 17:42:42.480 ,7,1,0.,24.0,0.,24.0
1979-08-05 17:43:06.480 ,7,0,0.,24.0,0.,24.0
1979-08-05 17:43:30.480 ,6,1,0.,24.0,0.,24.0
1979-08-05 17:43:54.480 ,6,0,0.,24.0,0.,24.0
1979-08-05 17:44:18.480 ,5,1,0.,24.0,0.,24.0
1979-08-05 17:44:42.480 ,5,0,0.,24.0,0.,24.0
1979-08-05 17:45:06.480 ,4,1,0.,24.0,0.,24.0
1979-08-05 17:45:30.480 ,4,0,0.,24.0,0.,24.0
1979-08-05 17:45:54.480 ,3,1,0.,24.0,0.,24.0
1979-08-05 17:46:18.480 ,3,0,0.,24.0,0.,24.0
1979-08-05 17:46:42.480 ,2,1,0.,24.0,0.,24.0
1979-08-05 17:47:06.480 ,2,0,0.,24.0,0.,24.0
1979-08-05 17:47:30.480 ,1,1,0.,24.0,0.,24.0
1979-08-05 17:47:54.480 ,1,0,0.,24.0,0.,24.0
1979-08-05 17:48:18.480 ,0,1,0.,24.0,0.,24.0
1979-08-05 17:48:42.480 ,0,0,0.,24.0,0.,24.0
1979-08-05 17:49:06.480 ,0,1,0.,24.0,0.,24.0
1979-08-05 17:49:30.480 ,0,0,0.,24.0,0.,24.0
1979-08-05 17:49:54.480 ,1,1,0.,24.0,0.,24.0
1979-08-05 17:50:18.480 ,1,0,0.,24.0,0.,24.0
1979-08-05 17:50:42.480 ,2,1,0.,24.0,0.,24.0
1979-08-05 17:51:06.480 ,2,0,0.,24.0,0.,24.0
1979-08-05 17:51:30.480 ,3,1,0.,24.0,0.,24.0
1979-08-05 17:51:54.480 ,3,0,0.,24.0,0.,24.0
1979-08-05 17:52:18.480 ,0,0,,0,,0
1979-08-05 17:52:42.480 ,0,0,,0,,0
